Weather reports worldwide

Advertisment
Guadalajara, Spain (8226): temperature & dewpoint: 19.04.2019 14:00:00 - 25.04.2019 14:00:00 (CEST)Guadalajara, Spain (8226): wind speed: 19.04.2019 14:00:00 - 25.04.2019 14:00:00 (CEST)Guadalajara, Spain (8226): wind direction: 19.04.2019 14:00:00 - 25.04.2019 14:00:00 (CEST)Guadalajara, Spain (8226): reduced air pressure: 19.04.2019 14:00:00 - 25.04.2019 14:00:00 (CEST)Guadalajara, Spain (8226): visibility: 19.04.2019 14:00:00 - 25.04.2019 14:00:00 (CEST)Guadalajara, Spain (8226): precipitation: 19.04.2019 14:00:00 - 25.04.2019 14:00:00 (CEST)
Date & Time tt [°C] td [°C] ff [km/h] ff [kn] dd ppp [hPa] vv [km] rr [mm]
25.04.2019 14:00:00 11,7 2,9 28 15 WSW 1010,2 20 -
25.04.2019 13:00:00 11,0 3,3 26 14 WSW 1010,2 20 0,0
25.04.2019 12:00:00 9,9 4,7 29 16 SW 1010,6 20 0,0
25.04.2019 11:00:00 9,2 4,6 22 12 WSW 1010,4 20 -
25.04.2019 10:00:00 8,0 4,8 18 10 SW 1010,2 20 0,0
25.04.2019 09:00:00 7,5 4,8 18 10 SW 1009,6 20 0,0
25.04.2019 08:00:00 7,2 4,5 21 11 SW 1008,6 20 -
25.04.2019 07:00:00 7,0 5,1 22 12 SW 1008,2 20 0,0
25.04.2019 06:00:00 7,2 5,3 18 10 SW 1007,7 20 0,0
25.04.2019 05:00:00 7,8 5,8 28 15 SW 1006,7 20 -
25.04.2019 04:00:00 9,1 6,7 31 17 SW 1005,5 20 0,4
25.04.2019 03:00:00 9,7 8,9 26 14 SW 1005,2 - 2,0
25.04.2019 02:00:00 11,4 9,6 39 21 SSW 1003,2 20 -
25.04.2019 01:00:00 10,8 9,4 24 13 SSW 1003,9 19 0,0
25.04.2019 00:00:00 11,0 9,1 31 17 SSW 1004,5 20 0,0
24.04.2019 23:00:00 9,7 9,1 18 10 SW 1005,7 19 -
24.04.2019 22:00:00 9,4 8,6 22 12 SW 1005,3 - 1,0
24.04.2019 21:00:00 9,8 8,6 28 15 WSW 1004,6 - 4,0
24.04.2019 20:00:00 11,1 9,7 42 23 SSW 1001,8 8 -
24.04.2019 19:00:00 11,1 9,5 41 22 SSW 1002,1 3,7 0,8
24.04.2019 18:00:00 11,2 9,6 35 19 SSW 1001,9 - 1,0
24.04.2019 17:00:00 11,1 9,2 35 19 SSW 1002,2 - -
24.04.2019 16:00:00 11,0 8,9 31 17 SSW 1002,8 19 0,0
24.04.2019 15:00:00 10,0 8,4 34 18 SSW 1003,6 - 0,2
24.04.2019 14:00:00 8,9 7,5 24 13 SSW 1004,4 6 -
24.04.2019 13:00:00 7,9 6,5 24 13 SSW 1005,2 4,9 0,6
24.04.2019 12:00:00 6,6 5,1 24 13 SSW 1006,1 9 1,0
24.04.2019 11:00:00 6,0 4,5 24 13 SSW 1005,3 6 -
24.04.2019 10:00:00 5,1 3,8 24 13 S 1005,3 14 0,2
24.04.2019 09:00:00 4,4 2,9 18 10 SSW 1006,4 7 1,0
24.04.2019 08:00:00 5,1 2,4 21 11 SSW 1005,8 20 -
24.04.2019 07:00:00 5,2 2,7 16 9 SW 1005,0 20 0,0
24.04.2019 06:00:00 4,8 2,8 13 7 SW 1005,0 20 0,0
24.04.2019 05:00:00 4,8 2,8 18 10 SW 1005,0 20 -
24.04.2019 04:00:00 4,6 2,6 13 7 SW 1004,8 20 0,0
24.04.2019 03:00:00 5,4 3,2 13 7 WSW 1004,5 20 0,0
24.04.2019 02:00:00 5,8 4,1 15 8 SW 1004,2 20 -
24.04.2019 01:00:00 5,8 4,0 21 11 SW 1003,7 20 0,0
24.04.2019 00:00:00 6,3 4,0 18 10 WSW 1003,1 20 0,0
23.04.2019 23:00:00 6,2 4,2 11 6 SW 1002,6 20 -
23.04.2019 22:00:00 7,7 4,1 18 10 SW 1000,9 20 0,0
23.04.2019 21:00:00 7,8 3,6 16 9 SW 999,8 20 0,0
23.04.2019 20:00:00 9,1 2,6 24 13 SW 998,6 20 -
23.04.2019 19:00:00 10,4 2,0 29 16 WSW 997,9 20 0,0
23.04.2019 18:00:00 10,5 2,6 26 14 WSW 997,1 20 0,0
23.04.2019 17:00:00 11,8 3,8 21 11 SSW 996,2 20 -
23.04.2019 16:00:00 9,8 4,8 21 11 SSW 997,2 20 0,0
23.04.2019 15:00:00 7,1 4,6 13 7 SW 998,7 18 0,4
23.04.2019 14:00:00 8,0 6,1 16 9 W 998,2 20 -
23.04.2019 13:00:00 8,0 7,2 16 9 WSW 998,3 3,7 0,4
23.04.2019 12:00:00 9,4 7,2 15 8 WSW 997,3 20 0,2
23.04.2019 11:00:00 8,9 7,5 18 10 SW 997,0 19 -
23.04.2019 10:00:00 10,1 8,0 16 9 SW 996,0 7 0,0
23.04.2019 09:00:00 10,9 7,0 21 11 SSW 995,4 20 0,0
23.04.2019 08:00:00 10,5 6,8 22 12 S 995,5 20 -
23.04.2019 07:00:00 11,1 5,4 15 8 S 995,2 20 0,0
23.04.2019 06:00:00 11,6 4,3 11 6 S 995,3 20 0,0
23.04.2019 05:00:00 12,0 5,6 16 9 SW 996,1 20 -
23.04.2019 04:00:00 12,1 6,6 11 6 SSW 996,0 20 0,0
23.04.2019 03:00:00 12,4 6,7 11 6 SSW 996,4 20 0,0
23.04.2019 02:00:00 12,4 6,7 16 9 S 997,0 20 -
23.04.2019 01:00:00 12,2 6,9 11 6 S 997,1 20 0,0
23.04.2019 00:00:00 12,9 6,7 13 7 S 997,4 20 0,0
22.04.2019 23:00:00 13,7 6,5 16 9 S 997,2 20 -
22.04.2019 22:00:00 14,1 6,0 13 7 SSW 997,3 20 0,0
22.04.2019 21:00:00 14,6 5,9 13 7 S 997,0 20 0,0
22.04.2019 20:00:00 15,8 6,0 15 8 SSW 996,9 20 -
22.04.2019 19:00:00 17,3 4,9 15 8 SW 996,6 20 0,0
22.04.2019 18:00:00 17,5 5,1 9 5 W 996,7 20 0,0
22.04.2019 17:00:00 17,6 4,5 9 5 SW 997,1 20 -
22.04.2019 16:00:00 16,2 5,2 5 3 WSW 998,4 20 0,0
22.04.2019 15:00:00 16,1 5,7 11 6 WSW 999,2 20 0,0
22.04.2019 14:00:00 15,3 6,3 11 6 WSW 999,9 20 -
22.04.2019 13:00:00 15,0 6,0 8 4 WNW 1000,7 20 0,0
22.04.2019 12:00:00 14,2 5,5 5 3 WNW 1001,5 20 0,0
22.04.2019 11:00:00 13,0 6,3 4 2 WNW 1002,2 20 -
22.04.2019 10:00:00 12,0 6,1 5 3 ENE 1002,9 19 0,0
22.04.2019 09:00:00 9,2 6,3 5 3 ENE 1003,9 20 0,0
22.04.2019 08:00:00 8,2 6,2 4 2 E 1004,2 20 -
22.04.2019 07:00:00 8,3 6,4 5 3 NE 1004,3 20 0,0
22.04.2019 06:00:00 8,4 6,4 5 3 NE 1004,7 20 0,0
22.04.2019 05:00:00 8,7 6,1 4 2 N 1005,6 20 -
22.04.2019 04:00:00 8,2 6,0 5 3 NE 1006,4 20 0,0
22.04.2019 03:00:00 7,7 5,7 5 3 NE 1007,3 20 0,0
22.04.2019 02:00:00 8,4 5,5 8 4 NE 1008,0 20 -
22.04.2019 01:00:00 9,0 5,7 9 5 NE 1008,4 20 0,0
22.04.2019 00:00:00 9,1 5,3 11 6 NE 1008,8 20 0,0
21.04.2019 23:00:00 9,5 5,3 13 7 NE 1009,2 20 -
21.04.2019 22:00:00 10,0 5,4 13 7 ENE 1008,8 20 0,0
21.04.2019 21:00:00 10,6 5,1 15 8 ENE 1008,4 20 0,0
21.04.2019 20:00:00 10,9 5,0 13 7 NE 1008,5 20 -
21.04.2019 19:00:00 11,4 5,0 15 8 NE 1008,5 20 0,0
21.04.2019 18:00:00 11,5 4,7 18 10 ENE 1008,7 20 0,0
21.04.2019 17:00:00 11,3 5,2 16 9 NE 1009,4 20 -
21.04.2019 16:00:00 10,8 5,1 16 9 NE 1010,3 20 0,0
21.04.2019 15:00:00 11,1 5,2 16 9 ENE 1010,7 20 0,0
21.04.2019 14:00:00 10,5 4,8 15 8 NE 1011,3 20 -
21.04.2019 13:00:00 10,9 5,0 21 11 ENE 1011,7 20 0,0
21.04.2019 12:00:00 10,4 5,4 16 9 ENE 1012,1 20 0,0
21.04.2019 11:00:00 9,8 5,2 16 9 NE 1012,4 20 -
21.04.2019 10:00:00 9,2 5,2 13 7 NE 1012,9 20 0,0
21.04.2019 09:00:00 8,7 4,9 11 6 NE 1013,2 20 0,0
21.04.2019 08:00:00 8,0 4,4 15 8 NE 1013,9 20 -
21.04.2019 07:00:00 7,9 3,9 9 5 NE 1014,3 20 0,0
21.04.2019 06:00:00 7,9 3,7 18 10 NE 1014,2 20 0,0
21.04.2019 05:00:00 8,2 5,0 11 6 NE 1015,0 20 -
21.04.2019 04:00:00 8,3 5,4 11 6 ENE 1015,9 20 0,0
21.04.2019 03:00:00 9,0 5,4 8 4 ENE 1016,7 20 0,0
21.04.2019 02:00:00 9,6 4,4 8 4 NE 1017,6 20 -
21.04.2019 01:00:00 10,1 4,2 9 5 E 1018,2 20 0,0
21.04.2019 00:00:00 10,6 4,1 11 6 E 1018,3 20 0,0
20.04.2019 23:00:00 11,4 3,9 15 8 E 1017,8 20 -
20.04.2019 22:00:00 12,4 3,6 22 12 E 1016,8 20 0,0
20.04.2019 21:00:00 13,9 2,8 11 6 ESE 1015,6 20 0,0
20.04.2019 20:00:00 14,9 2,7 24 13 E 1014,7 20 -
20.04.2019 19:00:00 16,2 3,6 22 12 E 1014,2 20 0,0
20.04.2019 18:00:00 17,1 4,1 22 12 ENE 1013,5 20 0,0
20.04.2019 17:00:00 17,5 4,8 24 13 ENE 1014,0 20 -
20.04.2019 16:00:00 17,5 4,4 24 13 ENE 1013,7 20 0,0
20.04.2019 15:00:00 18,6 4,0 31 17 ENE 1013,8 20 0,0
20.04.2019 14:00:00 18,3 4,5 28 15 ENE 1014,0 20 -
20.04.2019 13:00:00 16,2 5,5 18 10 NE 1015,1 20 0,0
20.04.2019 12:00:00 14,4 5,5 22 12 NE 1015,8 20 0,0
20.04.2019 11:00:00 13,1 5,5 22 12 ENE 1016,0 20 -
20.04.2019 10:00:00 11,7 5,1 18 10 NE 1016,4 20 0,0
20.04.2019 09:00:00 11,2 5,1 13 7 NE 1016,8 20 0,0
20.04.2019 08:00:00 11,1 4,8 15 8 NE 1016,7 20 -
20.04.2019 07:00:00 11,0 5,1 22 12 ENE 1016,8 20 0,0
20.04.2019 06:00:00 11,0 5,1 15 8 NE 1016,8 20 0,0
20.04.2019 05:00:00 10,9 5,2 13 7 ENE 1017,7 20 -
20.04.2019 04:00:00 11,2 5,3 26 14 NE 1018,0 20 0,0
20.04.2019 03:00:00 11,0 5,3 15 8 NE 1018,9 20 0,0
20.04.2019 02:00:00 11,5 5,6 24 13 ENE 1018,7 20 -
20.04.2019 01:00:00 10,8 6,2 16 9 ENE 1018,5 20 0,0
20.04.2019 00:00:00 8,6 8,2 5 3 ENE 1019,7 14 0,0
19.04.2019 23:00:00 9,0 8,5 2 1 S 1019,9 14 -
19.04.2019 22:00:00 9,4 8,9 5 3 SW 1019,0 6 0,0
19.04.2019 21:00:00 9,6 9,0 4 2 WSW 1017,6 19 0,0
19.04.2019 20:00:00 11,2 9,3 5 3 E 1016,0 20 -
19.04.2019 19:00:00 9,2 8,9 4 2 WSW 1016,2 19 0,0
19.04.2019 18:00:00 8,8 8,5 2 1 S 1016,1 16 0,8
19.04.2019 17:00:00 8,7 8,2 4 2 N 1016,7 3,0 -
19.04.2019 16:00:00 9,1 8,0 8 4 NE 1017,2 3,6 1,0
19.04.2019 15:00:00 9,9 7,8 11 6 E 1017,2 6 1,0
19.04.2019 14:00:00 10,1 7,7 13 7 ENE 1017,0 16 -

tt = temperature
td = dewpoint
ff = wind speed
dd = wind direction
ppp = reduced air pressure
vv = visibility
rr = precipitation

Next stations